Wind_Speed
77 78 79 80 81 80 80 80 79 78 77 77 76 74 73 73 73 73 74 74 73 73 72 72 72 73 74 76 77 78 79 80 81 82 82 83 84 84 85 85 85 85 85 85 85 85 85 85 86 87 88 88 88 88 87 86 85 83 82 79 77 75 73 72 72 73 74 75 77 79 82 84 85 87 87 88 88 89 90 91 93 94 97 99 102 104
78 79 80 81 82 81 81 81 80 79 79 78 77 76 75 74 74 73 73 73 72 72 72 73 73 74 76 77 78 79 80 81 82 83 84 84 85 85 86 86 86 85 85 85 85 85 85 86 87 87 88 88 88 87 87 86 85 83 81 79 76 74 72 72 72 73 75 76 78 81 83 85 86 88 88 88 89 89 90 91 93 95 97 100 103 105
80 80 81 82 82 82 82 82 81 80 79 79 78 77 76 75 74 73 73 72 72 72 73 74 75 76 77 78 79 81 82 83 83 84 85 85 86 86 86 86 86 85 85 85 85 85 86 86 87 88 88 88 88 87 86 86 84 83 80 77 75 73 72 72 73 75 76 78 80 82 84 86 87 88 89 89 89 90 91 92 94 96 98 101 103 106
80 81 81 82 82 82 82 82 81 80 80 78 78 77 76 74 74 73 72 72 72 73 74 75 76 77 78 80 81 82 83 84 85 86 86 87 87 87 86 86 85 85 85 85 85 85 86 87 88 88 88 88 88 87 86 85 84 82 79 76 74 73 73 73 74 76 78 79 81 83 85 87 88 89 89 89 90 90 91 93 95 97 99 102 104 106
81 81 81 81 81 82 82 81 80 79 79 78 77 76 75 74 73 73 73 74 74 75 76 77 79 80 81 82 84 85 85 86 86 87 87 87 87 87 86 86 85 85 85 85 85 86 87 88 88 88 88 88 87 87 86 85 83 80 78 76 74 73 73 74 76 77 79 81 83 85 86 87 88 89 89 89 90 91 92 94 96 98 100 103 105 107
81 80 80 80 80 81 81 80 79 78 77 77 76 75 75 74 74 74 75 76 77 78 79 80 82 83 84 85 86 86 87 87 88 88 88 88 87 86 86 85 85 85 85 86 86 87 88 88 88 88 88 88 87 87 86 84 82 79 77 75 74 74 75 76 77 79 81 83 84 86 87 88 88 89 89 90 90 91 93 95 97 99 101 104 106 108
81 81 80 80 80 81 81 81 80 79 78 77 76 76 76 76 76 77 78 79 80 81 82 84 85 86 87 87 87 87 88 88 88 88 88 87 87 86 85 85 85 85 86 87 87 88 88 88 88 88 88 88 87 86 85 83 81 79 77 76 75 75 76 77 79 80 82 84 86 87 88 88 89 89 89 90 91 92 94 96 98 100 102 105 107 108
81 82 82 82 82 83 83 83 82 81 80 79 79 78 78 79 79 80 81 82 83 84 86 87 88 88 88 87 87 88 88 88 87 87 87 86 86 86 85 86 86 87 87 88 88 89 89 89 88 88 88 88 87 86 84 83 81 79 77 76 76 76 77 79 80 82 84 85 87 88 89 89 89 89 90 90 91 93 95 97 99 101 103 105 107 108
83 83 84 84 84 85 85 86 85 84 83 83 82 82 82 82 83 84 85 86 86 87 88 88 88 88 87 87 87 87 87 86 86 86 86 86 86 86 86 87 87 88 88 89 89 89 89 89 89 89 88 87 87 85 84 82 81 79 77 77 77 77 79 80 81 83 85 86 88 89 89 90 90 90 90 91 92 94 96 98 100 102 104 106 107 108
84 85 86 86 87 86 86 87 87 86 85 85 84 84 84 85 86 87 88 88 89 89 88 88 88 87 87 87 87 86 86 85 85 85 85 86 87 88 88 89 89 89 89 89 89 89 89 89 89 89 88 87 86 85 84 82 81 79 78 77 78 79 80 81 82 84 86 87 88 89 90 90 90 90 91 92 94 96 98 100 101 103 105 107 108 108
86 87 87 88 88 87 87 86 86 86 85 85 85 85 86 86 87 88 88 89 89 89 88 87 87 86 86 86 86 86 85 85 85 86 87 88 89 89 90 90 90 90 89 89 90 90 90 90 90 89 88 87 86 85 83 82 81 79 78 78 79 80 81 82 83 85 86 88 89 90 90 90 91 91 92 94 96 97 99 101 102 104 106 107 108 108
87 88 88 88 88 87 87 86 86 85 85 85 85 86 86 87 87 87 87 87 87 87 87 86 86 85 85 85 85 85 86 86 87 88 89 89 90 91 91 90 90 90 90 90 90 91 91 90 90 89 88 87 86 84 83 82 80 79 79 79 80 81 82 83 85 86 87 88 89 90 90 91 92 93 94 96 97 99 101 102 104 105 107 108 109 108
87 88 88 88 87 87 86 86 85 85 85 85 85 86 86 86 86 86 86 86 86 86 86 86 86 86 86 86 86 86 87 88 88 89 90 90 91 91 91 91 91 91 91 91 91 91 91 91 90 89 88 87 85 84 83 81 80 80 80 81 81 82 83 84 86 87 88 89 89 90 91 92 93 94 96 97 99 100 102 103 105 106 108 109 109 107
86 86 87 87 87 87 86 86 86 85 85 86 85 85 86 86 86 86 86 86 86 87 87 87 87 87 88 88 88 88 88 89 90 90 90 91 91 91 91 91 91 91 92 92 92 92 91 91 90 89 87 86 85 83 82 81 80 80 81 82 82 83 84 85 87 87 88 89 90 91 92 93 94 96 97 99 100 102 103 104 106 108 109 109 108 107
85 86 86 86 87 87 87 87 87 87 87 87 87 86 87 87 87 87 87 87 88 88 89 89 89 89 89 89 89 89 90 90 90 90 91 91 91 91 91 91 92 92 93 93 93 92 91 90 89 88 87 85 84 83 82 81 81 81 82 82 83 84 85 86 87 88 89 90 91 92 93 94 96 97 99 100 102 103 104 106 107 109 110 109 108 106
86 86 86 87 87 88 88 88 88 88 88 88 88 88 88 88 89 89 89 89 89 90 90 90 90 90 90 90 90 90 90 90 91 91 91 92 92 92 92 92 93 93 94 93 93 92 91 90 88 87 86 85 84 83 82 81 81 82 82 83 84 85 86 87 88 89 90 91 92 93 94 96 97 99 100 101 103 104 105 107 109 110 110 109 107 105
86 87 87 88 88 89 90 90 89 89 89 89 89 90 90 90 90 90 90 91 91 91 91 91 90 90 90 91 91 91 91 91 91 91 92 92 93 93 93 93 93 94 94 93 92 91 90 89 88 87 85 84 83 83 82 82 82 82 83 84 84 85 86 87 88 89 91 92 93 95 96 98 99 100 102 103 104 105 107 108 110 111 110 108 106 104
87 87 88 88 89 90 90 90 90 90 90 90 90 91 91 91 91 91 91 91 91 91 91 91 90 90 90 90 91 91 91 91 91 92 93 93 93 94 93 93 94 94 93 93 92 91 90 88 87 86 85 84 83 82 82 82 82 83 83 84 85 86 87 88 89 90 92 93 95 96 98 99 100 101 103 104 105 107 108 110 111 111 109 107 105 104
86 87 88 88 89 90 90 90 90 90 90 90 91 91 91 91 92 91 91 91 91 91 91 90 90 90 90 90 91 92 92 91 92 93 93 94 94 94 94 94 94 93 93 92 91 90 89 88 87 86 85 84 83 83 82 82 83 83 84 84 85 87 88 89 90 92 93 95 96 98 99 100 101 103 104 105 107 108 110 111 111 110 108 106 104 104
86 87 88 88 89 89 89 90 90 90 90 91 91 91 91 92 92 92 91 91 91 91 90 90 90 90 90 90 91 92 92 92 92 93 94 94 94 95 94 94 93 93 92 92 91 90 89 88 87 86 85 84 83 83 82 82 83 83 84 85 86 87 89 91 92 94 95 96 98 99 100 101 102 104 105 107 108 110 111 111 110 108 106 105 104 104
87 88 88 88 89 89 89 90 90 90 90 91 91 91 92 92 92 92 92 91 91 91 91 90 90 90 91 91 92 92 92 92 93 93 94 95 95 95 95 94 93 93 92 92 91 90 89 88 87 86 85 84 83 83 82 83 83 84 85 86 87 89 91 92 94 95 96 98 99 100 101 102 104 105 106 108 110 111 112 111 109 107 105 104 103 104
87 88 89 89 89 89 89 90 90 90 91 91 91 91 92 92 92 92 92 92 91 91 91 91 91 91 92 92 92 93 93 93 93 94 95 95 96 96 95 94 93 93 93 92 92 91 89 88 87 86 85 84 83 83 83 83 84 85 86 87 89 91 92 94 95 97 98 99 100 101 102 104 105 107 108 110 111 112 111 109 107 105 104 103 104 104
88 88 89 89 89 90 90 90 91 91 91 91 92 92 92 92 92 92 92 92 92 91 91 92 92 93 93 93 93 94 94 94 95 95 95 96 96 96 96 95 94 93 93 93 92 90 89 88 86 85 84 83 83 83 83 84 85 86 88 89 91 93 94 95 96 98 99 100 101 102 104 105 107 108 110 111 112 111 110 107 105 104 103 103 104 105
88 88 89 90 90 90 91 91 92 92 92 92 93 93 93 93 93 93 93 92 92 92 92 93 93 94 94 95 95 96 96 96 96 96 96 96 96 96 96 95 94 94 94 93 91 89 88 87 86 84 83 83 83 83 84 85 87 88 90 91 93 94 95 96 98 99 100 101 103 104 105 107 108 110 111 112 111 110 107 105 104 103 103 103 105 107
89 89 90 91 91 92 92 93 93 93 94 94 94 94 94 94 94 93 93 93 93 93 94 94 94 95 96 96 97 97 98 98 97 97 96 96 96 96 96 95 94 93 93 92 90 88 86 85 85 84 83 83 84 85 86 87 88 90 91 93 94 95 96 98 99 100 101 103 104 106 107 109 110 111 112 111 110 108 105 104 103 103 103 104 106 109
90 91 92 92 93 93 94 94 94 95 95 95 95 95 95 95 94 94 94 94 94 95 95 95 96 97 98 98 98 98 99 99 98 97 96 96 96 96 96 95 94 92 91 90 88 86 85 84 84 84 84 84 85 86 87 89 90 91 93 94 95 96 98 99 100 102 103 105 106 108 109 110 111 112 111 110 108 105 104 103 103 103 104 105 108 111
92 93 94 95 95 95 96 96 96 96 96 96 96 96 96 95 95 95 95 96 96 96 96 97 97 98 99 99 99 99 99 99 98 97 97 96 95 96 96 94 92 90 89 87 86 85 84 84 84 85 85 86 87 88 89 90 92 93 94 95 97 98 99 101 102 104 105 107 108 109 111 111 112 111 109 107 105 104 103 103 103 104 105 107 111 114
95 95 96 97 97 97 97 97 97 97 97 97 97 96 96 96 95 96 96 97 97 97 97 98 99 99 99 99 100 100 99 99 98 98 97 96 95 95 94 92 90 88 86 85 85 85 84 84 85 86 86 87 88 89 91 92 93 94 96 97 98 100 101 102 104 105 107 108 110 111 112 111 111 109 107 105 104 103 102 103 103 105 107 110 113 116
97 98 98 98 98 98 98 98 98 98 98 97 97 97 97 96 96 97 98 99 98 99 99 99 100 100 100 100 100 100 99 99 98 98 96 95 94 93 91 89 87 86 85 84 85 85 85 86 86 87 88 89 90 91 92 93 95 96 97 99 100 101 103 104 105 107 109 110 111 111 111 110 108 106 105 103 103 102 102 103 104 107 110 113 116 117
99 99 99 99 99 99 99 99 99 98 98 98 98 98 98 98 98 98 99 100 100 100 100 101 101 101 100 100 100 100 99 99 98 97 95 92 91 90 89 86 85 85 84 84 85 86 87 87 88 88 89 90 92 93 94 95 96 98 99 100 102 103 104 106 107 109 110 111 111 111 109 107 106 104 103 102 102 102 103 104 106 109 113 116 117 116
100 100 101 100 100 100 100 99 99 99 99 99 99 99 99 99 100 100 101 101 101 101 101 101 101 101 101 100 99 98 99 98 97 95 92 89 88 87 86 85 85 85 85 85 85 87 88 89 90 90 91 92 93 95 96 97 98 100 101 102 103 104 106 107 109 110 111 111 110 108 107 105 104 103 102 102 102 103 104 106 109 112 116 117 117 113
102 102 102 101 101 101 100 100 100 100 100 100 100 100 101 101 101 102 102 102 102 102 102 102 101 101 100 99 98 97 97 96 94 92 89 87 86 86 86 85 85 86 87 86 87 88 89 91 92 92 93 94 96 97 98 99 100 101 102 103 105 106 108 109 110 110 110 109 107 106 104 103 102 102 102 102 103 104 106 109 112 115 118 117 114 109
102 102 102 102 102 101 101 101 101 101 101 102 102 102 102 103 103 103 103 103 103 102 101 101 100 100 99 98 97 95 94 92 91 89 87 86 85 86 86 86 86 87 88 88 89 90 91 92 94 95 96 97 98 99 99 100 101 102 103 105 106 108 110 110 110 109 108 107 105 104 103 102 102 102 102 103 104 106 109 112 115 118 118 115 110 104
102 102 102 102 102 102 102 102 102 103 103 103 103 104 104 104 104 104 103 103 102 101 101 100 99 98 96 95 94 92 91 90 89 87 86 85 85 86 87 87 88 88 89 90 91 92 93 95 96 97 98 99 99 100 100 101 102 104 105 107 109 110 110 110 109 108 106 104 103 102 102 101 102 102 103 104 106 109 112 116 118 118 116 111 105 99
103 103 103 103 103 103 103 104 104 104 104 104 104 104 104 104 103 103 102 102 101 100 99 98 96 95 93 91 90 89 88 88 88 87 86 86 86 87 88 89 90 90 91 93 94 95 96 97 98 99 99 100 101 101 102 103 105 106 108 109 110 110 110 109 107 105 104 103 102 102 102 102 102 103 105 107 109 113 116 118 118 116 111 106 99 93
104 104 104 104 105 105 105 105 105 105 105 104 104 104 103 103 102 101 100 99 98 97 96 95 93 92 90 89 88 87 87 87 87 87 86 87 88 89 90 91 92 93 94 95 96 97 98 99 99 100 100 101 102 103 105 106 108 109 110 111 110 109 108 106 105 103 102 102 102 102 102 103 103 105 107 110 113 116 118 118 116 112 106 100 94 89
106 106 106 106 106 106 106 105 105 105 104 104 103 102 101 100 99 98 97 96 95 94 93 92 91 90 89 88 88 87 87 87 88 88 88 89 90 91 92 94 95 95 96 97 98 99 99 100 101 101 102 103 104 106 108 109 110 111 111 110 109 107 106 104 103 102 101 102 102 102 103 104 106 108 111 114 117 118 118 116 112 106 100 95 90 86
108 108 108 107 107 106 105 105 104 103 102 101 100 100 98 97 96 96 95 94 93 92 91 90 90 89 89 89 88 88 88 89 89 90 91 92 93 94 95 96 97 98 98 98 99 100 100 101 102 103 105 106 107 109 110 110 111 110 109 108 106 105 103 102 102 102 102 102 103 103 105 106 109 111 115 117 119 118 116 112 107 101 95 90 87 83
107 107 106 106 105 104 103 102 101 100 99 99 98 97 96 95 95 94 93 92 92 91 91 91 90 90 90 90 90 91 91 92 93 93 94 95 96 97 97 98 99 100 100 100 101 101 102 103 104 106 107 109 110 111 111 110 109 108 107 105 104 103 102 102 102 102 102 103 104 105 107 110 113 115 118 119 118 116 112 107 101 96 91 87 84 82
104 103 103 102 101 100 100 99 98 98 97 96 96 95 95 94 94 94 93 93 93 92 92 92 92 92 92 93 93 94 95 95 96 97 97 98 99 99 100 100 101 101 102 103 103 104 105 106 107 109 109 110 110 110 110 108 107 105 104 103 102 102 102 102 102 103 104 105 106 108 111 113 116 118 119 118 115 111 106 101 96 92 88 85 83 81
100 100 99 99 98 98 97 97 96 96 95 95 95 95 94 94 94 94 94 94 94 94 94 94 95 95 95 96 96 97 97 98 99 99 100 100 101 101 101 102 102 103 104 105 106 106 107 108 109 110 110 110 109 108 107 106 104 103 102 101 102 102 103 103 104 105 106 107 109 112 114 117 119 119 118 115 111 106 101 96 92 89 86 83 82 81
98 97 97 97 97 96 96 96 95 95 95 95 95 95 96 96 96 96 96 96 97 97 97 97 97 98 98 99 99 100 100 100 101 101 101 102 102 103 103 103 104 105 105 106 107 108 109 109 109 109 108 107 106 105 104 103 103 102 102 102 102 103 104 105 106 107 109 111 113 116 118 119 119 117 114 110 105 101 96 92 89 87 85 83 82 81
97 97 97 97 96 96 96 96 96 96 96 97 97 98 98 98 98 98 99 99 99 99 99 99 99 99 100 101 101 101 102 102 102 102 103 103 103 104 104 105 106 106 107 108 108 109 109 109 108 107 106 105 104 103 103 102 102 102 102 103 103 104 105 107 109 110 112 115 117 119 119 118 116 113 109 105 100 96 93 90 87 85 84 83 82 81
98 98 98 98 98 98 98 98 98 98 99 99 100 100 101 101 101 101 101 101 101 101 101 101 101 101 101 102 102 103 103 103 104 104 104 104 105 105 106 107 107 108 108 108 108 108 107 107 106 105 104 103 103 102 102 103 103 104 104 105 105 106 107 109 111 114 116 118 119 119 118 116 112 108 104 100 96 93 90 88 87 85 84 83 82 81
99 99 99 99 100 100 100 100 101 101 101 102 102 102 103 103 103 102 102 102 102 102 102 102 102 102 103 103 103 104 104 104 105 105 106 106 107 107 107 108 108 108 108 107 107 106 105 105 104 104 104 103 103 103 103 104 104 105 106 107 108 109 111 113 115 117 119 120 119 118 115 112 108 104 100 96 93 91 89 87 86 85 84 84 83 82
101 101 101 101 101 102 102 102 102 103 103 103 103 104 104 104 103 103 103 103 103 103 103 103 103 103 103 104 104 105 105 106 106 107 108 108 108 108 108 108 108 107 106 106 105 105 104 103 103 103 104 104 104 105 105 106 106 107 108 109 111 112 114 117 118 119 120 119 117 114 111 107 103 100 96 94 92 90 88 87 86 85 85 84 83 82
102 102 102 103 103 103 103 104 104 104 104 104 104 104 104 104 104 104 104 103 103 103 103 104 104 104 105 105 106 106 107 107 108 109 109 109 109 109 108 107 107 106 105 104 104 104 104 104 104 104 104 105 106 107 107 108 108 109 110 112 114 116 118 119 120 120 118 116 113 110 107 103 100 97 94 92 90 89 88 87 87 86 85 84 84 83
102 103 103 104 104 104 104 105 105 105 105 105 105 105 105 105 104 104 104 104 104 104 104 105 105 106 106 107 107 108 108 108 109 109 109 109 108 108 107 106 105 105 104 104 104 104 104 105 105 106 106 107 107 108 109 110 111 112 113 115 117 119 120 120 120 118 116 113 110 107 104 100 97 95 93 91 90 89 88 88 87 86 86 85 84 83
104 104 105 105 105 105 106 106 106 106 106 106 106 106 106 106 106 105 105 105 105 105 106 106 106 107 108 108 108 109 109 109 109 109 108 108 107 107 106 105 105 105 105 105 105 106 106 107 107 108 108 108 109 110 111 112 114 115 117 119 120 121 120 120 118 116 113 110 107 104 101 98 96 93 92 91 90 89 89 88 88 87 86 86 85 84
105 105 106 106 106 107 107 107 107 107 107 107 107 107 107 107 107 107 107 107 107 107 107 107 108 108 108 109 109 109 109 109 109 108 108 108 107 106 106 105 105 106 106 107 107 108 108 109 110 110 110 111 111 111 113 115 117 119 120 121 121 120 119 118 116 113 110 107 105 102 99 97 95 93 92 91 90 90 89 89 89 88 87 86 85 84
107 107 107 108 108 108 108 108 108 108 108 108 108 108 108 108 108 108 108 108 108 108 109 109 109 109 109 109 110 110 109 109 109 109 108 108 107 107 106 106 107 107 108 109 109 110 110 110 111 112 113 113 114 114 116 118 120 121 122 122 121 119 118 116 113 111 108 105 103 100 98 96 95 93 92 91 91 90 90 90 89 89 88 87 86 85
Wind_Direction
269 270 270 271 271 272 273 274 274 276 277 278 279 280 280 281 281 282 283 285 286 287 287 288 289 290 291 292 292 293 293 293 294 295 296 296 297 298 299 300 301 301 302 302 303 303 304 305 307 308 310 311 313 314 314 315 315 315 315 315 315 316 316 317 317 317 317 316 316 316 316 316 316 316 316 316 316 317 317 318 319 320 321 323 324 326
269 269 270 270 271 272 272 273 274 275 277 278 279 280 280 280 281 282 283 284 284 285 286 287 288 289 290 291 291 292 292 293 294 294 295 296 298 298 299 300 300 301 301 302 302 303 304 305 307 309 310 312 313 314 314 315 315 315 315 315 315 316 316 316 316 316 315 315 315 316 316 316 316 316 316 316 316 317 317 318 318 320 321 322 324 325
269 269 270 270 271 271 272 273 274 275 276 278 278 279 279 280 280 281 281 282 282 283 284 286 287 289 290 290 291 291 292 292 293 294 295 297 298 298 299 300 300 300 301 301 302 303 304 306 307 309 310 312 313 313 314 314 314 315 315 315 315 315 315 315 315 314 314 315 315 315 315 315 315 316 316 316 316 316 317 317 318 319 321 322 324 325
268 269 269 270 270 271 272 273 274 275 276 277 277 278 278 279 279 279 280 280 281 282 284 286 287 288 289 289 290 290 291 292 293 294 296 297 298 298 299 299 299 300 300 301 302 303 304 306 308 309 311 312 312 313 314 314 314 314 314 314 314 314 314 314 314 313 314 314 314 315 315 315 315 315 315 315 316 316 317 317 318 319 320 322 323 325
268 268 269 269 270 271 272 273 274 275 276 276 276 277 277 277 278 278 279 280 281 282 284 285 287 287 288 289 289 290 291 292 294 295 296 297 297 298 298 298 299 299 300 301 302 303 305 307 308 309 311 311 312 313 313 314 314 314 314 314 314 313 313 313 313 313 313 313 314 314 314 314 314 315 315 315 315 316 316 317 318 319 320 322 323 325
267 267 268 269 270 271 272 272 273 274 274 275 275 276 276 276 277 278 279 280 281 282 284 285 287 287 288 289 290 290 292 293 294 295 295 296 296 297 297 297 298 299 299 301 302 304 305 307 309 310 311 311 312 313 313 314 314 314 313 313 313 313 312 312 312 312 312 313 313 313 314 314 314 314 314 314 315 315 316 317 318 319 320 321 323 324
266 266 267 268 269 270 270 271 272 273 273 274 274 275 275 276 276 277 278 280 281 283 285 286 287 288 289 289 290 291 292 293 294 294 295 295 295 296 296 297 297 298 300 301 303 304 306 307 309 310 310 311 312 312 313 313 313 313 313 312 312 312 311 311 311 311 312 312 312 313 313 313 313 314 314 314 314 315 315 316 317 318 320 321 323 324
265 266 266 267 267 268 269 270 271 271 272 273 273 274 275 275 276 277 279 280 282 284 285 287 288 288 289 289 290 291 292 292 293 293 294 294 294 295 296 296 297 299 300 302 303 305 307 308 309 310 310 311 311 312 312 312 312 312 312 312 311 311 311 311 311 311 311 311 312 312 312 313 313 313 313 314 314 314 315 316 317 318 320 321 323 324
265 266 266 267 267 268 269 270 270 271 271 272 273 274 274 276 277 278 280 282 283 285 286 287 288 288 289 289 289 290 291 291 292 292 292 293 293 294 295 296 298 299 301 302 304 305 307 308 309 309 310 310 311 311 312 312 312 312 311 311 311 310 310 310 310 310 311 311 311 311 312 312 312 312 313 313 313 314 315 316 317 318 320 321 323 324
266 266 267 267 268 268 269 270 271 271 272 272 273 274 275 276 278 280 282 283 285 286 287 287 287 288 288 288 289 289 290 290 290 291 291 292 293 294 295 297 298 300 301 303 304 305 307 307 308 309 309 310 310 311 311 311 311 311 311 310 310 310 310 310 310 310 310 310 311 311 311 311 312 312 312 313 313 314 315 316 317 318 320 321 322 323
266 267 267 268 268 269 269 270 271 272 273 273 274 275 276 278 280 282 284 285 286 286 286 286 286 287 287 287 288 288 288 289 289 290 291 292 293 294 296 297 299 300 301 303 304 305 306 307 307 308 309 309 310 310 310 310 310 310 310 310 310 310 309 309 309 310 310 310 310 310 310 311 311 311 312 312 313 314 315 316 317 318 320 321 322 323
266 267 267 268 268 269 270 271 272 273 274 275 276 278 279 281 282 283 285 285 286 286 286 286 286 286 286 286 287 288 288 288 289 290 291 292 294 295 296 298 299 300 301 302 303 304 305 306 307 307 308 309 309 309 310 310 310 309 309 309 309 309 309 309 309 309 309 309 309 310 310 310 311 311 311 312 313 314 315 316 317 318 320 321 322 322
265 266 267 268 269 269 270 272 273 274 276 277 279 280 282 283 283 284 284 284 284 284 284 284 285 285 286 286 287 287 288 289 289 291 292 293 294 295 296 297 298 299 301 302 303 304 305 306 306 307 307 308 308 309 309 309 309 309 309 309 309 309 309 309 309 309 309 309 309 309 309 310 310 311 311 312 313 314 315 316 317 318 320 321 321 322
265 266 267 267 269 270 271 272 274 275 277 279 280 281 282 283 283 283 283 283 283 283 283 283 284 284 285 286 287 288 288 289 290 291 292 293 294 295 296 297 298 299 300 301 303 303 304 305 306 306 307 307 308 308 308 308 308 308 308 308 308 309 309 309 308 308 308 308 308 309 309 309 310 310 311 312 313 314 315 316 317 318 319 320 321 321
264 265 266 267 269 270 271 273 274 276 277 279 280 281 281 282 282 282 282 282 282 282 282 283 283 284 285 286 287 288 289 290 290 291 292 293 293 294 296 297 298 299 300 301 302 303 304 305 305 306 306 307 307 307 307 307 307 307 308 308 308 308 308 308 308 308 308 308 308 308 308 309 310 310 311 312 313 314 315 316 317 318 319 320 321 321
264 265 267 268 269 271 272 274 275 277 278 279 280 281 281 281 281 281 281 281 281 282 282 282 283 284 285 286 287 287 288 289 290 290 291 292 293 294 295 296 298 299 300 301 302 303 304 305 305 306 306 306 306 306 306 307 307 307 307 308 308 308 308 307 307 307 307 307 307 308 308 309 310 310 311 312 313 314 315 316 317 318 319 320 320 321
265 266 268 269 271 272 274 275 277 278 279 280 280 280 280 280 280 280 280 280 280 281 281 281 282 283 284 285 286 287 287 288 289 290 290 291 292 293 295 296 298 299 300 301 302 303 304 304 305 305 305 305 305 306 306 306 306 307 307 307 307 307 307 307 306 306 306 307 307 308 308 309 310 310 311 312 313 314 315 316 317 318 319 319 320 320
266 268 269 271 272 274 275 277 278 278 279 279 279 279 279 279 279 279 279 279 279 280 280 281 282 283 283 284 285 286 287 288 288 289 290 291 292 293 295 296 298 299 300 301 302 302 303 304 304 304 304 304 305 305 305 306 306 306 307 307 306 306 306 306 306 306 306 306 307 307 308 309 310 310 311 312 313 314 315 316 317 318 318 319 319 320
267 269 270 272 273 275 276 277 277 278 278 278 278 278 278 278 278 278 278 278 278 279 280 280 281 282 283 283 284 285 286 287 288 289 290 291 292 294 295 297 298 299 300 301 301 302 302 303 303 303 303 304 304 304 305 305 306 306 306 306 305 305 305 305 305 305 305 306 307 307 308 309 310 310 311 312 313 314 315 316 317 317 318 318 319 319
268 270 271 272 274 275 275 276 276 276 276 276 277 277 276 277 277 277 277 277 278 279 280 280 281 282 282 283 284 285 286 287 288 289 290 291 293 294 295 297 298 299 299 300 301 301 302 302 302 302 303 303 304 304 305 305 305 305 305 305 304 304 304 304 304 305 305 306 306 307 308 309 310 310 311 312 313 314 315 316 316 317 317 318 318 319
268 270 271 272 273 273 274 274 275 275 275 275 275 275 275 276 276 276 277 277 278 279 279 280 281 281 282 283 284 285 286 287 288 289 291 292 293 294 296 297 298 298 299 300 300 301 301 301 301 302 302 303 303 304 304 305 304 304 304 303 303 303 303 304 304 304 305 306 306 307 308 309 309 310 311 312 313 314 315 315 316 316 317 317 318 318
268 269 270 271 271 272 272 273 273 273 273 274 274 274 274 275 275 276 277 278 278 279 279 280 281 281 282 283 284 285 286 287 288 290 291 292 293 294 295 296 297 298 298 299 299 300 300 300 301 301 302 303 303 304 304 304 303 303 303 303 302 303 303 303 304 304 305 305 306 307 308 308 309 310 311 312 313 314 314 315 315 316 316 317 317 318
267 268 269 269 270 270 271 271 271 272 272 273 273 273 274 275 276 276 277 278 278 279 279 280 281 281 282 283 284 285 286 287 288 290 291 292 293 294 295 296 297 297 298 298 299 299 300 300 300 301 302 302 303 303 303 302 302 302 302 302 302 302 303 303 304 304 305 305 306 307 307 308 309 310 311 312 313 313 314 314 315 315 316 316 317 318
266 267 267 268 268 269 269 270 270 271 271 272 273 273 274 275 276 277 277 278 279 279 280 280 281 282 282 283 284 286 286 288 289 290 291 292 293 294 295 295 296 297 297 298 298 299 299 300 300 301 302 302 302 302 302 301 301 301 301 301 302 302 302 303 303 304 305 305 306 307 307 308 309 310 311 312 312 313 313 314 314 315 315 316 316 317
265 266 266 267 267 268 268 269 269 270 271 271 272 273 274 275 276 277 277 278 278 279 280 280 281 282 283 284 285 286 287 288 289 290 291 292 293 294 294 295 296 296 297 297 298 298 299 300 300 301 301 301 301 301 300 301 301 301 301 301 301 302 302 303 303 304 305 305 306 306 307 308 309 310 311 311 312 312 313 313 314 314 315 315 316 317
264 265 265 266 266 267 267 268 269 269 270 271 272 273 274 275 275 276 277 277 278 279 280 281 282 283 284 285 286 287 287 288 289 290 291 292 293 293 294 295 295 296 296 297 298 298 299 299 300 300 300 300 300 300 300 300 300 300 301 301 301 302 302 303 303 304 304 305 306 306 307 308 309 310 310 311 312 312 313 313 313 314 314 315 316 317
264 264 265 265 266 266 267 267 268 269 269 270 271 272 273 274 275 276 276 277 278 279 280 281 282 283 284 285 286 287 287 288 289 290 291 292 293 293 294 294 295 296 296 297 298 298 298 299 299 299 299 299 299 299 299 299 300 300 300 301 301 301 302 302 303 304 304 305 306 306 307 308 309 309 310 311 311 312 312 312 313 313 314 315 316 317
263 264 264 265 265 266 266 267 267 268 269 270 271 272 272 273 274 275 276 277 278 279 281 281 282 283 284 285 286 287 287 288 289 290 291 292 292 293 293 294 295 296 296 297 297 297 297 297 298 298 298 298 298 299 299 299 299 300 300 300 301 301 302 302 303 304 304 305 306 307 307 308 309 309 310 310 311 311 312 312 312 313 314 315 316 317
263 263 264 264 265 265 266 267 267 268 269 270 270 271 272 273 274 275 276 277 278 280 281 281 282 283 284 285 286 287 287 288 289 290 291 291 292 293 293 294 295 295 296 296 297 297 296 296 297 297 297 298 298 298 298 298 299 299 299 300 300 301 302 302 303 304 304 305 306 307 307 308 309 309 310 310 311 311 311 312 312 313 314 315 316 317
263 263 264 264 264 265 266 266 267 268 269 270 270 271 272 273 274 275 276 277 278 279 280 281 282 283 284 285 286 287 287 288 289 289 290 291 292 292 293 294 294 295 295 295 295 296 296 296 296 296 296 297 297 297 297 298 298 299 299 300 300 301 301 302 303 304 305 306 306 307 307 308 309 309 309 310 310 310 311 311 312 313 314 315 316 317
262 263 263 264 264 265 266 266 267 268 269 270 271 271 272 273 274 275 276 277 278 279 280 281 282 283 284 285 286 286 287 288 288 289 290 291 292 292 293 293 294 294 294 294 294 294 295 295 296 296 296 296 296 297 297 297 298 298 299 300 300 301 302 303 303 304 305 306 306 307 307 308 308 309 309 309 310 310 310 311 312 313 314 315 316 316
262 262 263 263 264 265 266 266 267 268 269 270 271 272 273 273 274 275 276 277 278 279 280 281 282 283 283 284 285 286 286 287 288 289 290 291 291 292 292 293 293 293 293 293 293 294 294 294 295 295 295 295 296 296 297 297 298 298 299 299 300 301 302 303 304 305 305 306 306 307 307 308 308 308 308 309 309 310 310 311 312 313 314 315 316 316
261 262 263 263 264 265 266 267 267 268 269 270 271 272 273 274 275 275 276 277 278 279 280 281 282 282 283 284 285 285 286 287 288 289 290 290 291 291 291 292 292 292 293 293 293 293 293 293 294 294 294 295 295 296 296 297 298 298 299 300 301 302 303 303 304 305 305 306 306 307 307 307 307 308 308 308 309 309 310 311 313 314 314 315 315 315
261 262 262 263 264 265 266 267 268 269 270 271 272 272 273 274 275 276 277 278 278 279 280 281 281 282 283 284 284 285 286 287 287 288 289 290 290 290 291 291 291 291 292 292 292 292 292 292 293 293 294 294 295 296 296 297 298 298 299 300 301 302 303 304 304 305 305 306 306 306 306 307 307 307 308 308 309 310 311 312 313 314 314 314 314 314
261 262 263 264 265 266 267 268 269 270 270 271 272 273 274 275 275 276 277 278 278 279 280 280 281 282 283 284 284 285 286 287 287 288 288 289 289 289 290 290 290 291 291 291 291 291 292 292 292 293 294 294 295 296 296 297 298 299 300 301 302 302 303 304 304 305 305 305 305 306 306 306 306 307 307 308 309 310 311 312 313 313 314 314 313 313
261 262 263 264 265 266 267 268 269 270 271 272 272 273 274 275 275 276 277 277 278 279 280 280 281 282 282 283 284 285 286 286 287 287 287 288 288 288 289 289 289 290 290 290 290 291 291 292 292 293 293 294 295 296 297 297 298 299 300 301 302 303 303 304 304 304 304 305 305 305 305 306 306 307 307 308 309 310 311 312 312 313 313 313 313 312
262 263 264 265 266 267 268 269 269 270 271 272 273 273 274 275 275 276 277 277 278 279 280 280 281 282 282 283 284 284 285 285 286 286 286 287 287 287 288 288 288 289 289 289 290 290 291 291 292 293 294 294 295 296 297 298 299 300 300 301 302 302 303 303 303 304 304 304 304 304 305 305 306 307 307 308 309 310 311 312 312 312 312 312 312 312
262 263 264 265 266 267 268 269 270 270 271 272 273 273 274 275 276 276 277 278 278 279 280 280 281 282 282 283 283 283 284 284 284 285 285 286 286 286 287 287 288 288 288 289 290 290 291 292 292 293 294 295 296 297 298 299 299 300 301 301 302 302 302 303 303 303 303 303 303 304 304 305 306 307 308 309 310 311 311 311 311 311 311 311 311 311
263 264 265 266 267 268 268 269 270 271 272 272 273 274 275 275 276 277 277 278 278 279 280 280 281 281 282 282 282 282 283 283 283 284 284 285 285 286 286 287 287 288 288 289 290 290 291 292 293 294 295 296 297 297 298 299 300 300 301 301 302 302 302 302 302 302 302 303 303 304 304 305 306 307 308 309 310 311 311 311 311 311 311 311 311 311
265 265 266 267 268 269 270 270 271 272 273 273 274 275 275 276 276 277 277 278 278 279 279 280 280 280 281 281 281 282 282 282 283 283 284 284 285 285 286 286 287 288 288 289 290 291 291 292 293 294 295 296 297 298 298 299 300 300 301 301 301 301 301 301 301 302 302 302 303 304 305 306 307 308 309 309 310 310 310 310 310 310 310 310 310 310
267 268 269 269 270 271 271 272 273 273 274 274 275 275 275 276 276 277 277 277 278 278 279 279 279 280 280 280 281 281 281 282 282 283 283 284 284 285 286 286 287 288 289 289 290 291 292 293 294 295 296 297 297 298 299 299 300 300 300 300 300 300 300 300 301 301 302 302 303 304 305 306 307 308 309 309 310 310 310 309 309 309 310 310 310 310
269 269 270 271 271 272 272 273 273 273 274 274 274 274 275 275 275 276 276 277 277 278 278 278 279 279 280 280 280 281 281 281 282 283 283 284 284 285 286 286 287 288 289 290 291 292 293 294 295 296 296 297 298 298 299 299 299 299 299 299 299 299 300 300 301 301 302 303 304 305 306 307 308 308 309 309 309 309 309 309 309 309 309 309 310 310
269 269 270 270 271 271 272 272 272 273 273 273 273 273 274 274 275 275 276 276 276 277 277 278 278 279 279 280 280 281 281 281 282 283 283 284 284 285 286 287 288 289 290 291 292 293 294 295 296 296 297 297 298 298 298 298 298 298 298 298 299 299 299 300 301 302 302 303 304 305 306 307 308 308 309 309 309 308 308 308 308 309 309 309 309 309
268 269 269 270 270 271 271 271 271 271 272 272 272 272 273 273 274 274 275 275 276 277 277 278 278 279 279 279 280 281 281 282 282 283 284 284 285 286 287 288 289 290 291 292 293 294 295 296 296 296 297 297 297 297 297 297 297 297 298 298 298 299 299 300 301 302 303 304 305 306 307 308 308 308 308 308 308 308 308 308 308 308 308 309 309 309
268 268 269 269 269 270 270 270 270 270 271 271 271 272 272 273 273 274 275 275 276 276 277 277 278 279 279 280 280 281 282 282 283 284 284 285 286 287 288 289 291 292 292 293 294 295 295 295 296 296 296 296 296 296 296 296 297 297 297 298 298 299 300 301 302 303 304 305 306 306 307 307 308 308 308 308 307 307 307 308 308 308 308 308 309 309
268 268 268 269 269 269 269 270 270 270 271 271 271 272 272 273 273 274 274 275 276 276 277 277 278 279 279 280 281 281 282 283 284 285 286 287 288 289 290 291 292 292 293 294 294 294 295 295 295 295 295 295 295 295 296 296 296 297 297 298 299 300 301 302 303 304 305 305 306 307 307 307 307 307 307 307 307 307 307 307 307 308 308 308 308 308
267 268 268 269 269 269 269 270 270 270 271 271 271 272 272 273 273 274 275 275 276 276 277 278 278 279 280 281 281 282 283 284 285 286 287 288 289 290 291 291 292 293 293 293 294 294 294 294 294 294 294 294 294 295 295 296 296 297 297 298 299 300 301 302 303 304 305 306 306 306 307 307 307 307 306 306 307 307 307 307 307 307 307 308 308 308
267 268 268 269 269 269 270 270 270 271 271 271 272 272 273 274 274 275 275 276 277 277 278 279 279 280 281 281 282 283 284 285 286 287 288 289 289 290 291 292 292 293 293 293 293 293 293 293 293 293 293 294 294 294 295 296 296 297 298 299 300 301 302 303 304 305 305 306 306 306 306 306 306 306 306 306 306 306 306 307 307 307 307 307 308 308
267 267 268 268 269 269 270 270 271 271 272 272 273 273 274 275 275 276 276 277 278 278 279 280 280 281 282 282 283 284 285 286 287 287 288 289 290 290 291 291 292 292 292 292 292 292 292 292 292 293 293 293 294 294 295 296 297 298 299 300 301 302 303 304 305 305 305 305 305 305 305 305 305 305 306 306 306 306 306 306 307 307 307 307 307 307
267 267 268 268 269 269 270 271 271 272 272 273 274 274 275 276 276 277 278 278 279 279 280 281 281 282 283 283 284 285 286 286 287 288 288 289 290 290 290 291 291 291 291 291 291 291 291 292 292 293 293 293 294 294 295 296 298 299 300 301 302 303 304 304 305 305 305 305 305 305 305 305 305 305 305 305 306 306 306 306 306 307 307 307 307 307
266 267 267 268 269 269 270 271 271 272 273 273 274 275 275 276 277 278 278 279 279 280 281 281 282 283 283 284 284 285 286 286 287 287 288 289 289 289 289 290 290 290 290 290 290 291 291 291 292 292 293 294 294 295 296 297 299 300 301 302 303 303 304 304 304 304 304 304 304 304 304 304 304 305 305 305 305 306 306 306 306 306 307 307 307 307
Height
10674 10673 10673 10671 10671 10671 10671 10671 10672 10672 10671 10671 10672 10671 10671 10671 10670 10670 10670 10669 10668 10668 10667 10666 10666 10665 10665 10663 10662 10661 10660 10658 10658 10657 10656 10655 10655 10653 10652 10651 10650 10648 10646 10645 10643 10641 10639 10637 10636 10634 10633 10631 10629 10627 10625 10623 10621 10620 10618 10616 10613 10610 10607 10605 10603 10601 10600 10598 10596 10594 10591 10588 10586 10583 10581 10579 10576 10573 10570 10566 10563 10560 10557 10554 10550 10547
10668 10668 10668 10666 10666 10666 10666 10666 10667 10668 10667 10667 10667 10667 10666 10666 10666 10666 10665 10665 10665 10664 10663 10662 10661 10661 10660 10658 10657 10656 10655 10653 10653 10652 10651 10650 10650 10648 10647 10646 10645 10643 10641 10640 10638 10636 10635 10633 10631 10630 10628 10626 10624 10622 10620 10619 10617 10615 10613 10610 10608 10606 10603 10601 10599 10597 10596 10595 10593 10590 10588 10585 10581 10579 10576 10574 10572 10569 10566 10563 10560 10556 10553 10550 10547 10543
10663 10663 10662 10661 10661 10661 10661 10661 10662 10663 10663 10663 10662 10662 10662 10661 10661 10661 10661 10661 10660 10659 10658 10658 10656 10656 10655 10653 10652 10651 10650 10648 10648 10647 10646 10645 10645 10643 10643 10641 10640 10638 10637 10635 10634 10632 10630 10628 10627 10625 10623 10621 10620 10618 10616 10614 10612 10610 10608 10605 10603 10601 10599 10597 10595 10593 10592 10590 10589 10586 10584 10581 10578 10575 10572 10570 10567 10565 10562 10559 10556 10553 10550 10547 10543 10540
10658 10658 10656 10656 10656 10656 10656 10657 10658 10658 10658 10658 10658 10658 10658 10657 10656 10656 10656 10656 10655 10655 10653 10653 10652 10651 10650 10648 10647 10646 10645 10643 10643 10642 10641 10640 10640 10638 10638 10636 10635 10634 10632 10631 10629 10628 10626 10624 10622 10620 10618 10616 10615 10613 10611 10610 10607 10605 10603 10601 10599 10597 10595 10593 10591 10590 10588 10586 10585 10583 10580 10577 10574 10571 10568 10565 10563 10560 10558 10555 10552 10549 10546 10543 10540 10536
10653 10652 10651 10652 10651 10651 10651 10652 10653 10653 10653 10653 10653 10653 10653 10653 10653 10652 10651 10651 10651 10650 10649 10648 10647 10646 10645 10643 10642 10640 10640 10638 10638 10637 10636 10635 10635 10633 10633 10631 10630 10629 10628 10626 10625 10623 10621 10620 10618 10615 10613 10611 10610 10608 10606 10605 10603 10600 10598 10596 10595 10593 10591 10590 10587 10585 10583 10582 10580 10578 10576 10573 10571 10568 10565 10561 10558 10556 10553 10550 10548 10545 10543 10540 10536 10533
10646 10647 10647 10647 10646 10646 10646 10646 10648 10648 10648 10648 10648 10648 10648 10648 10648 10647 10646 10646 10646 10645 10644 10643 10641 10641 10640 10638 10637 10636 10635 10634 10633 10632 10631 10630 10629 10628 10628 10626 10625 10624 10623 10621 10620 10618 10616 10615 10613 10611 10608 10606 10605 10603 10601 10600 10598 10596 10594 10592 10591 10589 10587 10585 10583 10581 10579 10577 10575 10573 10571 10569 10566 10564 10561 10558 10555 10552 10549 10546 10543 10541 10538 10535 10532 10528
10641 10641 10642 10642 10641 10641 10641 10641 10641 10643 10643 10642 10642 10643 10643 10643 10643 10642 10641 10641 10641 10640 10639 10638 10636 10635 10635 10633 10632 10631 10630 10629 10628 10627 10626 10625 10624 10623 10622 10621 10620 10619 10618 10616 10615 10613 10611 10610 10608 10606 10603 10601 10600 10598 10596 10595 10593 10591 10590 10588 10586 10585 10583 10581 10579 10577 10575 10573 10571 10568 10566 10565 10562 10560 10557 10555 10552 10549 10546 10543 10540 10537 10534 10531 10528 10524
10635 10635 10636 10636 10636 10635 10635 10636 10636 10638 10638 10638 10637 10637 10637 10637 10637 10637 10636 10636 10636 10635 10634 10632 10631 10630 10630 10628 10628 10626 10625 10624 10623 10622 10621 10620 10619 10618 10617 10616 10615 10614 10612 10611 10609 10608 10606 10604 10602 10600 10598 10596 10595 10593 10591 10590 10589 10587 10586 10585 10583 10581 10579 10577 10575 10573 10570 10568 10566 10564 10561 10560 10558 10556 10553 10551 10548 10546 10543 10540 10537 10534 10531 10528 10525 10521
10628 10628 10628 10630 10630 10630 10630 10630 10631 10632 10633 10633 10633 10632 10632 10631 10631 10631 10631 10630 10630 10630 10628 10627 10625 10625 10624 10623 10623 10621 10620 10620 10618 10618 10616 10615 10613 10613 10611 10611 10610 10608 10607 10605 10604 10602 10600 10599 10597 10595 10594 10592 10590 10588 10586 10585 10584 10583 10581 10580 10578 10576 10575 10573 10571 10568 10566 10563 10561 10559 10556 10555 10553 10551 10549 10546 10544 10541 10539 10536 10533 10531 10528 10525 10521 10518
10622 10622 10622 10623 10624 10625 10626 10625 10625 10626 10628 10628 10628 10627 10627 10626 10626 10625 10625 10624 10624 10623 10623 10621 10621 10620 10618 10618 10618 10617 10616 10615 10613 10613 10611 10610 10608 10607 10606 10605 10604 10603 10601 10600 10599 10597 10596 10594 10592 10591 10589 10588 10586 10584 10582 10581 10579 10578 10576 10575 10574 10572 10570 10568 10566 10564 10561 10559 10556 10555 10552 10550 10548 10546 10544 10542 10540 10537 10535 10532 10529 10526 10524 10521 10518 10515
10616 10616 10617 10617 10618 10619 10620 10621 10620 10621 10623 10623 10622 10621 10621 10621 10621 10620 10619 10618 10617 10617 10617 10616 10616 10615 10614 10613 10611 10611 10611 10610 10609 10607 10606 10605 10603 10601 10600 10599 10598 10597 10596 10595 10594 10593 10591 10590 10588 10586 10585 10583 10581 10580 10578 10576 10575 10573 10571 10570 10569 10567 10566 10564 10561 10560 10557 10555 10552 10550 10547 10545 10543 10541 10539 10537 10535 10533 10530 10527 10525 10521 10519 10516 10513 10510
10611 10611 10613 10611 10611 10613 10614 10615 10616 10617 10618 10617 10616 10615 10615 10615 10616 10616 10615 10612 10611 10611 10611 10610 10610 10609 10608 10608 10606 10606 10605 10605 10603 10602 10600 10599 10597 10596 10595 10593 10593 10591 10591 10590 10590 10588 10587 10585 10583 10581 10580 10578 10577 10575 10573 10571 10570 10568 10566 10565 10564 10562 10560 10558 10556 10555 10552 10550 10548 10545 10543 10541 10538 10536 10534 10532 10530 10528 10525 10522 10520 10516 10514 10511 10508 10505
10607 10607 10608 10607 10606 10606 10608 10609 10611 10612 10611 10611 10610 10610 10609 10609 10610 10610 10610 10608 10606 10605 10605 10605 10603 10603 10602 10602 10601 10600 10600 10598 10597 10596 10595 10593 10591 10591 10590 10588 10588 10587 10586 10586 10585 10584 10583 10581 10579 10577 10575 10574 10572 10570 10569 10567 10565 10563 10561 10560 10558 10556 10555 10553 10551 10549 10547 10545 10543 10541 10538 10536 10534 10531 10530 10527 10525 10522 10520 10517 10515 10512 10509 10506 10503 10501
10602 10603 10603 10603 10602 10601 10603 10604 10605 10606 10605 10604 10604 10605 10605 10604 10603 10603 10603 10602 10601 10600 10601 10600 10598 10596 10596 10596 10595 10595 10593 10592 10591 10590 10588 10587 10586 10586 10585 10584 10583 10581 10582 10581 10580 10579 10578 10577 10575 10573 10571 10569 10567 10566 10564 10562 10560 10558 10556 10555 10553 10551 10550 10548 10546 10544 10541 10540 10538 10536 10534 10531 10530 10527 10525 10522 10520 10517 10515 10512 10510 10507 10505 10501 10499 10496
10597 10597 10598 10598 10597 10597 10598 10599 10600 10600 10599 10600 10600 10601 10600 10598 10598 10598 10598 10596 10595 10595 10596 10595 10593 10591 10591 10590 10590 10590 10588 10586 10585 10584 10583 10581 10581 10581 10581 10580 10578 10576 10576 10576 10576 10574 10573 10571 10570 10569 10566 10565 10563 10561 10559 10558 10556 10554 10552 10550 10548 10546 10545 10543 10540 10538 10536 10535 10533 10531 10529 10526 10525 10522 10520 10517 10515 10512 10510 10507 10505 10502 10500 10496 10494 10491
10592 10593 10593 10592 10592 10593 10593 10595 10595 10595 10594 10595 10595 10595 10593 10592 10591 10591 10593 10591 10591 10590 10590 10588 10587 10586 10585 10585 10585 10585 10584 10582 10580 10579 10578 10577 10576 10576 10576 10575 10573 10572 10571 10571 10570 10569 10568 10566 10565 10564 10562 10560 10558 10556 10555 10553 10551 10549 10547 10545 10543 10541 10540 10538 10535 10533 10531 10530 10528 10525 10523 10521 10519 10516 10515 10512 10510 10507 10505 10502 10500 10497 10495 10491 10489 10486
10590 10590 10588 10588 10588 10588 10588 10589 10589 10589 10588 10589 10589 10588 10587 10586 10586 10586 10586 10585 10585 10585 10583 10583 10583 10582 10580 10579 10578 10578 10579 10578 10576 10574 10573 10573 10571 10571 10571 10571 10570 10567 10566 10566 10565 10564 10563 10562 10560 10559 10557 10555 10553 10551 10550 10548 10546 10545 10543 10540 10538 10536 10535 10533 10531 10529 10527 10525 10523 10520 10518 10516 10513 10511 10509 10506 10505 10502 10500 10497 10495 10492 10489 10486 10484 10481
10588 10587 10586 10585 10584 10583 10583 10583 10583 10582 10582 10583 10583 10581 10581 10581 10581 10581 10580 10580 10580 10579 10578 10578 10578 10578 10577 10575 10573 10572 10573 10573 10571 10569 10568 10568 10566 10566 10566 10566 10565 10563 10561 10561 10560 10559 10558 10556 10556 10554 10553 10551 10549 10547 10545 10543 10541 10540 10538 10536 10534 10532 10530 10528 10526 10525 10522 10520 10518 10515 10513 10511 10508 10506 10504 10501 10499 10497 10495 10492 10490 10487 10484 10481 10479 10476
10585 10583 10583 10581 10580 10578 10578 10577 10576 10576 10576 10576 10576 10576 10577 10576 10575 10575 10575 10574 10574 10575 10575 10574 10573 10572 10572 10570 10568 10567 10568 10568 10566 10565 10563 10563 10561 10561 10561 10561 10560 10558 10556 10556 10555 10554 10553 10551 10550 10549 10548 10546 10544 10542 10540 10538 10536 10535 10533 10531 10529 10528 10526 10524 10522 10520 10518 10515 10513 10511 10508 10506 10503 10501 10499 10497 10495 10492 10490 10487 10485 10481 10479 10476 10473 10471
10580 10579 10578 10576 10574 10573 10572 10571 10571 10571 10571 10570 10571 10571 10571 10570 10569 10570 10569 10569 10569 10570 10570 10570 10568 10567 10566 10565 10563 10562 10563 10563 10561 10560 10558 10558 10557 10556 10556 10556 10555 10553 10551 10551 10550 10550 10548 10546 10545 10544 10543 10541 10539 10538 10536 10534 10532 10530 10528 10526 10525 10523 10521 10519 10517 10515 10513 10511 10508 10506 10503 10501 10499 10496 10495 10492 10490 10487 10485 10482 10480 10477 10474 10471 10468 10466
10574 10572 10570 10570 10569 10568 10566 10565 10566 10566 10566 10566 10566 10566 10564 10564 10564 10563 10563 10563 10564 10564 10564 10563 10562 10561 10560 10560 10558 10557 10557 10558 10556 10555 10553 10553 10551 10551 10551 10551 10550 10548 10546 10545 10545 10544 10543 10541 10540 10539 10538 10536 10534 10533 10531 10529 10528 10526 10524 10522 10520 10518 10516 10515 10512 10510 10508 10506 10503 10501 10499 10496 10495 10492 10490 10488 10485 10483 10480 10478 10475 10472 10469 10466 10463 10461
10567 10565 10563 10564 10564 10563 10561 10561 10561 10561 10561 10561 10561 10560 10558 10558 10558 10558 10558 10558 10558 10558 10558 10557 10556 10555 10555 10554 10553 10552 10552 10552 10551 10550 10549 10548 10546 10545 10545 10546 10545 10543 10541 10540 10540 10539 10538 10536 10535 10533 10532 10531 10529 10527 10526 10524 10523 10521 10519 10517 10515 10513 10511 10510 10507 10505 10503 10501 10498 10496 10494 10492 10490 10487 10485 10483 10480 10478 10475 10473 10470 10467 10465 10461 10458 10456
10561 10560 10559 10559 10558 10558 10557 10557 10557 10556 10556 10556 10555 10554 10553 10553 10553 10553 10553 10553 10553 10552 10551 10550 10550 10549 10549 10548 10548 10546 10546 10546 10546 10546 10545 10543 10541 10540 10540 10541 10540 10538 10536 10535 10535 10534 10532 10530 10529 10528 10526 10525 10523 10522 10521 10520 10518 10516 10515 10513 10510 10508 10506 10504 10502 10500 10498 10496 10494 10491 10489 10487 10485 10483 10480 10478 10475 10473 10470 10468 10465 10462 10460 10456 10454 10451
10555 10555 10554 10553 10553 10553 10553 10553 10552 10551 10551 10550 10550 10549 10548 10548 10548 10548 10548 10548 10546 10546 10545 10545 10544 10543 10542 10542 10541 10541 10540 10541 10541 10541 10540 10538 10536 10535 10535 10535 10535 10533 10530 10530 10530 10528 10526 10525 10523 10522 10521 10520 10518 10517 10516 10515 10513 10511 10510 10507 10505 10503 10501 10499 10497 10495 10493 10491 10489 10486 10485 10482 10480 10478 10475 10473 10470 10468 10465 10463 10460 10457 10455 10451 10449 10446
10550 10550 10549 10548 10548 10548 10548 10547 10546 10546 10546 10545 10545 10544 10543 10543 10543 10543 10542 10541 10541 10540 10540 10539 10538 10536 10535 10536 10536 10535 10533 10535 10536 10536 10535 10533 10531 10530 10529 10530 10530 10528 10525 10524 10523 10523 10521 10519 10518 10517 10516 10515 10514 10513 10511 10510 10508 10506 10504 10502 10500 10498 10496 10494 10492 10490 10488 10486 10483 10481 10480 10477 10475 10473 10470 10468 10465 10463 10460 10458 10455 10452 10449 10446 10444 10441
10545 10545 10544 10543 10543 10543 10543 10542 10541 10541 10540 10540 10540 10539 10539 10538 10538 10537 10536 10535 10534 10534 10534 10533 10531 10530 10530 10530 10530 10529 10528 10528 10530 10530 10530 10528 10526 10524 10523 10523 10523 10523 10520 10518 10518 10517 10516 10514 10513 10512 10511 10510 10509 10508 10506 10505 10503 10501 10499 10497 10495 10493 10491 10488 10486 10485 10483 10480 10478 10476 10474 10472 10470 10468 10465 10463 10460 10458 10455 10452 10449 10446 10444 10441 10439 10436
10539 10538 10538 10538 10537 10537 10537 10537 10536 10536 10535 10535 10534 10534 10534 10533 10532 10531 10529 10528 10528 10528 10528 10527 10526 10525 10525 10525 10524 10523 10523 10523 10523 10523 10523 10523 10521 10519 10516 10517 10517 10516 10515 10513 10511 10511 10511 10510 10508 10507 10506 10505 10504 10503 10501 10500 10498 10496 10493 10491 10490 10488 10485 10483 10481 10479 10477 10475 10473 10471 10469 10466 10464 10462 10460 10457 10455 10452 10449 10446 10443 10441 10438 10436 10434 10431
10533 10532 10531 10531 10531 10531 10531 10531 10531 10530 10530 10529 10529 10528 10528 10528 10526 10525 10523 10521 10522 10523 10523 10521 10520 10520 10519 10518 10518 10517 10517 10517 10516 10516 10518 10518 10516 10513 10511 10511 10511 10510 10509 10507 10506 10506 10506 10505 10503 10503 10501 10500 10499 10498 10496 10494 10493 10491 10488 10486 10484 10482 10480 10478 10476 10474 10471 10470 10468 10465 10463 10461 10458 10456 10454 10451 10448 10446 10443 10441 10438 10435 10433 10431 10428 10426
10526 10525 10525 10525 10525 10525 10525 10525 10525 10524 10524 10523 10523 10522 10521 10521 10521 10519 10516 10516 10517 10518 10516 10515 10515 10515 10514 10513 10512 10511 10511 10510 10510 10511 10512 10511 10509 10506 10506 10506 10505 10504 10503 10503 10501 10500 10499 10500 10499 10498 10496 10495 10494 10493 10491 10489 10487 10485 10483 10481 10479 10476 10475 10473 10471 10468 10466 10465 10462 10460 10457 10455 10453 10450 10448 10445 10443 10440 10438 10435 10433 10430 10428 10425 10423 10420
10519 10518 10518 10518 10519 10519 10519 10519 10518 10518 10518 10517 10516 10516 10515 10515 10515 10513 10512 10511 10512 10511 10510 10509 10509 10509 10508 10508 10507 10506 10505 10503 10504 10505 10506 10505 10503 10501 10500 10501 10500 10498 10498 10498 10496 10494 10492 10493 10493 10494 10493 10490 10488 10487 10486 10484 10482 10480 10478 10476 10473 10471 10470 10468 10466 10463 10461 10459 10456 10454 10451 10450 10447 10445 10442 10440 10437 10435 10432 10430 10427 10425 10422 10420 10417 10415
10511 10511 10511 10511 10512 10512 10513 10512 10511 10511 10511 10510 10510 10510 10509 10508 10508 10508 10507 10506 10506 10506 10505 10504 10503 10503 10503 10503 10502 10501 10498 10497 10498 10500 10501 10500 10497 10495 10495 10495 10494 10493 10493 10493 10493 10490 10486 10485 10486 10488 10488 10486 10484 10481 10480 10479 10477 10475 10473 10470 10468 10466 10464 10463 10461 10458 10456 10453 10451 10449 10446 10444 10441 10439 10436 10434 10431 10429 10426 10424 10421 10419 10416 10414 10411 10409
10504 10504 10505 10505 10505 10505 10505 10505 10505 10505 10504 10504 10503 10503 10503 10502 10502 10501 10501 10501 10500 10500 10500 10498 10498 10497 10497 10497 10496 10495 10493 10492 10492 10493 10495 10494 10491 10490 10490 10490 10489 10487 10486 10488 10488 10486 10484 10481 10480 10480 10481 10480 10479 10476 10475 10473 10471 10470 10468 10465 10463 10460 10458 10457 10455 10453 10450 10448 10445 10443 10440 10438 10436 10433 10431 10428 10426 10424 10421 10419 10416 10414 10411 10408 10405 10403
10497 10498 10498 10498 10498 10498 10498 10498 10498 10498 10497 10497 10496 10496 10496 10496 10496 10495 10495 10495 10495 10494 10494 10493 10492 10491 10491 10491 10490 10490 10488 10488 10487 10487 10488 10488 10486 10484 10484 10484 10483 10482 10481 10481 10481 10481 10480 10478 10475 10475 10474 10473 10473 10471 10470 10468 10466 10464 10462 10460 10458 10455 10453 10451 10450 10447 10445 10442 10440 10437 10435 10432 10430 10428 10425 10423 10421 10418 10416 10413 10411 10408 10405 10403 10400 10397
10490 10490 10491 10491 10491 10491 10491 10491 10491 10491 10491 10490 10490 10490 10490 10490 10489 10489 10488 10488 10488 10488 10488 10487 10486 10486 10485 10485 10485 10484 10483 10482 10482 10482 10483 10482 10481 10479 10478 10478 10478 10477 10476 10475 10475 10474 10474 10472 10471 10470 10468 10466 10466 10465 10465 10463 10460 10458 10456 10454 10452 10450 10447 10445 10443 10441 10438 10436 10433 10431 10429 10426 10425 10423 10420 10418 10416 10413 10410 10408 10405 10402 10400 10396 10394 10391
10483 10483 10484 10484 10484 10484 10484 10484 10484 10484 10483 10483 10483 10483 10483 10483 10483 10483 10482 10482 10482 10482 10481 10481 10481 10481 10480 10480 10479 10478 10477 10476 10476 10477 10477 10476 10475 10474 10473 10472 10472 10472 10472 10470 10469 10468 10468 10466 10465 10464 10463 10461 10459 10458 10457 10456 10455 10453 10450 10448 10446 10444 10441 10440 10437 10435 10432 10430 10427 10425 10423 10421 10419 10417 10415 10413 10410 10408 10405 10402 10400 10396 10393 10391 10388 10386
10476 10476 10476 10477 10478 10478 10477 10477 10477 10477 10477 10476 10476 10476 10476 10476 10476 10476 10476 10476 10476 10476 10475 10475 10475 10475 10475 10474 10473 10473 10471 10471 10471 10471 10471 10471 10470 10469 10468 10466 10466 10466 10466 10465 10463 10462 10461 10460 10458 10457 10457 10456 10453 10451 10450 10449 10448 10446 10444 10441 10440 10438 10435 10433 10431 10429 10426 10424 10421 10420 10418 10416 10414 10411 10409 10406 10405 10402 10399 10396 10393 10391 10388 10385 10382 10380
10469 10469 10470 10470 10470 10471 10471 10470 10470 10470 10470 10470 10470 10470 10470 10470 10470 10470 10470 10470 10470 10470 10469 10469 10468 10468 10468 10468 10468 10468 10466 10466 10466 10466 10465 10465 10465 10464 10463 10461 10460 10460 10461 10459 10457 10455 10455 10453 10452 10450 10450 10449 10448 10446 10443 10442 10440 10439 10436 10435 10433 10431 10429 10426 10424 10422 10420 10418 10416 10414 10412 10410 10408 10406 10403 10401 10398 10396 10393 10390 10387 10385 10382 10379 10376 10375
10461 10462 10462 10463 10463 10464 10464 10463 10463 10463 10463 10463 10463 10463 10464 10464 10464 10463 10463 10463 10463 10463 10463 10463 10462 10462 10462 10462 10462 10462 10461 10461 10461 10460 10460 10459 10459 10458 10457 10456 10454 10453 10454 10453 10452 10450 10449 10448 10446 10445 10443 10441 10441 10440 10438 10436 10435 10432 10430 10428 10426 10425 10423 10420 10418 10416 10415 10413 10410 10408 10406 10405 10403 10400 10398 10395 10392 10390 10386 10383 10381 10378 10376 10373 10371 10369
10455 10455 10455 10456 10456 10456 10456 10456 10456 10456 10457 10457 10457 10457 10457 10457 10457 10457 10457 10456 10456 10456 10456 10456 10456 10456 10456 10456 10456 10456 10455 10455 10455 10454 10453 10453 10453 10452 10451 10450 10448 10447 10446 10446 10446 10445 10443 10441 10440 10439 10438 10436 10434 10432 10430 10429 10428 10426 10423 10421 10419 10417 10415 10414 10412 10410 10408 10406 10405 10403 10401 10398 10396 10394 10391 10388 10386 10383 10380 10377 10375 10372 10370 10368 10366 10363
10448 10448 10448 10448 10449 10450 10450 10450 10450 10450 10450 10451 10450 10450 10450 10450 10450 10450 10450 10450 10450 10450 10450 10450 10450 10450 10450 10450 10450 10450 10449 10449 10448 10448 10448 10447 10446 10446 10445 10444 10443 10441 10440 10440 10439 10438 10437 10436 10434 10433 10431 10430 10429 10426 10424 10421 10420 10419 10418 10415 10412 10410 10408 10407 10406 10405 10403 10401 10399 10397 10395 10393 10390 10388 10385 10382 10379 10376 10373 10371 10368 10366 10365 10363 10361 10358
10440 10441 10441 10441 10441 10442 10443 10443 10443 10443 10443 10443 10443 10443 10443 10443 10443 10443 10443 10443 10443 10444 10444 10444 10444 10444 10443 10443 10443 10443 10443 10442 10441 10441 10441 10440 10440 10439 10438 10438 10436 10435 10435 10433 10432 10431 10430 10430 10428 10426 10424 10423 10422 10420 10417 10415 10413 10413 10411 10410 10407 10404 10402 10401 10400 10399 10397 10395 10392 10391 10389 10386 10384 10381 10378 10375 10372 10369 10366 10365 10362 10360 10358 10356 10355 10353
10433 10433 10433 10434 10435 10435 10436 10436 10436 10436 10436 10436 10436 10436 10435 10436 10436 10436 10436 10436 10436 10436 10437 10438 10438 10438 10436 10436 10436 10436 10436 10436 10435 10435 10434 10433 10433 10433 10432 10431 10430 10429 10428 10427 10425 10423 10422 10422 10421 10419 10417 10416 10415 10413 10410 10408 10406 10406 10405 10404 10401 10399 10396 10394 10393 10392 10391 10389 10386 10384 10382 10380 10377 10374 10371 10368 10365 10362 10360 10358 10356 10354 10353 10351 10349 10347
10426 10426 10426 10428 10428 10429 10429 10430 10430 10430 10430 10430 10429 10428 10428 10429 10430 10430 10430 10430 10430 10430 10430 10431 10431 10431 10430 10429 10428 10428 10428 10428 10428 10428 10428 10426 10426 10425 10425 10424 10423 10422 10421 10421 10418 10416 10414 10413 10413 10411 10410 10409 10407 10405 10403 10401 10400 10399 10398 10397 10396 10395 10391 10388 10386 10385 10383 10381 10380 10378 10375 10373 10370 10367 10365 10361 10359 10356 10353 10351 10350 10348 10346 10345 10343 10341
10419 10420 10420 10421 10422 10423 10423 10423 10423 10423 10423 10423 10422 10421 10421 10422 10423 10423 10423 10423 10423 10423 10424 10424 10425 10425 10424 10422 10421 10421 10421 10421 10421 10420 10420 10420 10419 10418 10418 10417 10416 10415 10414 10413 10411 10409 10407 10405 10403 10403 10402 10401 10400 10398 10396 10395 10393 10392 10391 10390 10390 10388 10386 10383 10381 10379 10377 10374 10371 10370 10368 10366 10363 10361 10358 10355 10353 10350 10348 10346 10343 10342 10340 10339 10337 10335
10413 10413 10414 10415 10415 10416 10416 10416 10415 10415 10416 10416 10415 10415 10415 10415 10416 10417 10417 10417 10416 10416 10417 10417 10418 10417 10416 10415 10414 10414 10414 10413 10413 10412 10412 10412 10411 10411 10411 10410 10409 10408 10406 10405 10403 10402 10400 10398 10396 10395 10394 10393 10393 10391 10390 10388 10387 10385 10384 10383 10382 10381 10379 10376 10375 10373 10371 10368 10365 10362 10360 10358 10356 10354 10351 10348 10346 10343 10341 10340 10338 10336 10334 10333 10331 10330
10405 10406 10406 10406 10407 10408 10408 10408 10408 10408 10408 10408 10408 10408 10408 10408 10410 10410 10410 10410 10410 10410 10410 10410 10410 10410 10409 10407 10406 10407 10407 10406 10405 10404 10404 10404 10404 10403 10403 10402 10401 10400 10399 10397 10396 10395 10393 10392 10390 10388 10387 10386 10385 10383 10383 10382 10381 10380 10377 10375 10375 10373 10371 10369 10367 10365 10363 10361 10358 10355 10353 10351 10349 10347 10345 10342 10340 10337 10335 10333 10332 10330 10328 10326 10325 10323
10398 10398 10398 10398 10399 10399 10400 10400 10400 10401 10401 10400 10400 10400 10401 10401 10402 10403 10403 10403 10403 10403 10403 10403 10403 10402 10401 10400 10400 10400 10400 10398 10397 10396 10396 10396 10396 10395 10395 10394 10393 10392 10391 10390 10388 10387 10386 10385 10384 10383 10381 10380 10378 10376 10375 10375 10375 10373 10371 10369 10367 10366 10364 10361 10360 10358 10356 10354 10351 10348 10346 10345 10342 10340 10338 10336 10333 10331 10329 10327 10326 10324 10322 10320 10319 10317
10390 10390 10390 10390 10390 10391 10391 10391 10392 10393 10393 10392 10392 10392 10393 10393 10395 10395 10395 10395 10396 10396 10396 10395 10395 10394 10393 10393 10392 10392 10392 10391 10390 10389 10388 10388 10388 10387 10387 10386 10385 10385 10383 10382 10381 10380 10380 10378 10378 10376 10376 10375 10373 10370 10368 10366 10366 10366 10365 10363 10360 10358 10356 10354 10351 10350 10348 10346 10344 10341 10340 10338 10336 10334 10332 10330 10327 10325 10323 10321 10319 10318 10316 10315 10313 10311
10383 10383 10382 10383 10383 10383 10383 10383 10384 10385 10385 10384 10384 10385 10385 10385 10386 10387 10387 10387 10388 10388 10388 10388 10387 10386 10386 10385 10384 10384 10384 10383 10383 10381 10381 10381 10380 10380 10380 10378 10378 10377 10376 10375 10374 10373 10373 10371 10370 10370 10369 10369 10368 10365 10361 10360 10358 10358 10358 10356 10353 10351 10349 10346 10344 10342 10341 10338 10336 10334 10333 10331 10330 10328 10326 10324 10321 10318 10316 10314 10312 10311 10309 10308 10306 10304
10376 10375 10375 10375 10376 10376 10376 10376 10376 10376 10376 10376 10376 10376 10376 10376 10377 10378 10378 10379 10380 10380 10379 10379 10379 10378 10378 10376 10376 10376 10376 10376 10375 10375 10373 10373 10373 10373 10373 10371 10370 10370 10369 10367 10366 10366 10365 10365 10363 10361 10361 10361 10361 10360 10358 10354 10351 10350 10349 10348 10346 10344 10342 10339 10336 10335 10333 10331 10329 10327 10325 10324 10323 10321 10320 10318 10315 10313 10310 10308 10306 10304 10302 10301 10300 10298
10368 10368 10368 10368 10369 10369 10369 10369 10369 10370 10370 10369 10369 10369 10369 10370 10370 10370 10370 10371 10371 10371 10371 10371 10371 10371 10370 10369 10368 10368 10368 10368 10368 10368 10366 10366 10366 10366 10366 10365 10363 10363 10361 10360 10359 10358 10358 10357 10356 10353 10351 10351 10353 10354 10353 10350 10346 10343 10341 10339 10337 10336 10335 10332 10329 10327 10325 10324 10321 10320 10318 10316 10315 10314 10313 10311 10309 10306 10304 10301 10299 10297 10295 10294 10293 10291